EW1898 Weather Reports


time (UTC)temp
F
wind
direction
speed
knots
gust
knots
rain 1hr
in
rain 24hr
in
rain mn
in
humidity
%
barometer
mb
20260509023100 47 290 0.0 0.0 0.00 0.00 0.00 61 1012.9
20260509021601 48 290 0.0 0.0 0.00 0.00 0.00 59 1012.8
20260509020056 49 290 0.0 0.0 0.00 0.00 0.00 57 1012.5
20260509014554 49 290 0.0 0.9 0.00 0.00 0.00 55 1012.3
20260509013108 50 291 0.0 1.7 0.00 0.00 0.00 54 1012.0
20260509011559 51 291 0.0 4.3 0.00 0.00 0.00 52 1011.8
20260509010047 51 295 0.0 3.5 0.00 0.00 0.00 50 1011.5
20260509004545 52 291 1.7 4.3 0.00 0.00 0.00 49 1011.1
20260509003105 52 291 1.7 6.1 0.00 0.00 0.00 48 1010.8
20260509001540 52 295 0.0 5.2 0.00 0.00 0.00 47 1010.6
20260509000039 53 293 1.7 5.2 0.00 0.00 0.00 45 1010.3
20260508234535 54 300 2.6 7.0 0.00 0.00 0.00 42 1010.1
20260508233035 55 309 4.3 8.7 0.00 0.00 0.00 39 1009.7
20260508231539 57 303 1.7 7.0 0.00 0.00 0.00 36 1009.5
20260508230033 58 315 2.6 6.1 0.00 0.00 0.00 34 1009.3
20260508224536 58 319 2.6 10.4 0.00 0.00 0.00 35 1009.1
20260508223032 58 347 3.5 10.4 0.00 0.00 0.00 35 1009.0
20260508221531 58 295 3.5 7.0 0.00 0.00 0.00 35 1009.0
20260508220030 58 321 1.7 7.0 0.00 0.00 0.00 36 1009.0
20260508214631 58 325 3.5 13.9 0.00 0.00 0.00 34 1008.9
20260508213029 58 318 1.7 13.0 0.00 0.00 0.00 35 1008.8
20260508211529 59 340 2.6 10.4 0.00 0.00 0.00 34 1008.6
20260508210031 57 313 0.9 3.5 0.00 0.00 0.00 38 1008.6
20260508204526 57 312 0.0 6.1 0.00 0.00 0.00 38 1008.6
20260508203026 58 297 0.0 7.0 0.00 0.00 0.00 37 1008.6
20260508201526 58 305 3.5 11.3 0.00 0.00 0.00 37 1008.6
20260508200026 58 310 2.6 8.7 0.00 0.00 0.00 37 1008.5
20260508194525 59 322 4.3 9.6 0.00 0.00 0.00 35 1008.5
20260508193024 58 293 3.5 8.7 0.00 0.00 0.00 36 1008.5
20260508191518 57 338 2.6 17.4 0.00 0.00 0.00 38 1008.5
20260508190023 56 270 3.5 12.2 0.00 0.00 0.00 36 1008.6
20260508184517 57 328 5.2 10.4 0.00 0.00 0.00 34 1008.6
20260508183018 57 305 3.5 8.7 0.00 0.00 0.00 34 1008.4
20260508181513 57 341 3.5 11.3 0.00 0.00 0.00 34 1008.5
20260508180011 56 310 2.6 8.7 0.00 0.00 0.00 39 1008.6
20260508174527 56 321 1.7 8.7 0.00 0.00 0.00 44 1008.7
20260508173012 55 277 3.5 11.3 0.00 0.00 0.00 40 1008.7
20260508171509 56 301 1.7 9.6 0.00 0.00 0.00 41 1008.7
20260508170010 55 292 4.3 12.2 0.00 0.00 0.00 40 1008.6
20260508164509 55 307 1.7 8.7 0.00 0.00 0.00 41 1008.6
20260508163022 55 295 1.7 7.8 0.00 0.00 0.00 42 1008.6
20260508161509 56 295 2.6 10.4 0.00 0.00 0.00 41 1008.5
20260508160006 55 293 1.7 7.8 0.00 0.00 0.00 43 1008.7
20260508154505 55 314 2.6 7.0 0.00 0.00 0.00 42 1008.9
20260508153010 55 311 1.7 11.3 0.00 0.00 0.00 43 1009.1
20260508151505 55 327 3.5 10.4 0.00 0.00 0.00 41 1009.1
20260508150001 54 303 0.9 7.0 0.00 0.00 0.00 42 1009.2
20260508144501 53 294 4.3 12.2 0.00 0.00 0.00 41 1009.3
20260508143105 54 292 4.3 9.6 0.00 0.00 0.00 39 1009.3
20260508141604 54 295 2.6 7.0 0.00 0.00 0.00 41 1009.5
20260508140056 54 303 2.6 6.1 0.00 0.00 0.00 42 1009.6
20260508134602 53 289 1.7 9.6 0.00 0.00 0.00 42 1009.7
20260508133100 53 307 3.5 11.3 0.00 0.00 0.00 40 1009.7
20260508131557 53 305 2.6 7.8 0.00 0.00 0.00 44 1009.7
20260508130104 52 325 0.0 2.6 0.00 0.00 0.00 50 1009.9
20260508124548 51 329 0.0 4.3 0.00 0.00 0.00 51 1009.9
20260508123044 50 331 0.9 3.5 0.00 0.00 0.00 53 1010.0
20260508121541 49 308 0.0 4.3 0.00 0.00 0.00 54 1009.9
20260508120037 47 328 0.9 5.2 0.00 0.00 0.00 58 1009.9
20260508114537 45 315 0.0 2.6 0.00 0.00 0.00 64 1009.9
20260508113047 44 314 0.0 2.6 0.00 0.00 0.00 67 1009.8
20260508111536 42 312 0.0 1.7 0.00 0.00 0.00 68 1009.8
20260508110047 41 305 0.0 0.0 0.00 0.00 0.00 70 1009.7
20260508104531 39 305 0.0 0.9 0.00 0.00 0.00 72 1009.6
20260508103036 38 347 0.0 0.9 0.00 0.00 0.00 75 1009.4
20260508101534 38 22 0.0 0.0 0.00 0.00 0.00 78 1009.2
20260508100025 39 215 0.0 0.0 0.00 0.00 0.00 75 1008.9
20260508094524 39 97 0.0 2.6 0.00 0.00 0.00 72 1008.9
20260508093039 39 296 0.0 0.0 0.00 0.00 0.00 73 1008.9
20260508091524 39 295 0.0 0.0 0.00 0.00 0.00 73 1008.7
20260508090028 39 295 0.0 0.0 0.00 0.00 0.00 74 1008.7
20260508084517 39 295 0.0 0.0 0.00 0.00 0.00 73 1008.7
20260508083020 40 295 0.0 0.0 0.00 0.00 0.00 70 1008.7
20260508081511 41 295 0.0 1.7 0.00 0.00 0.00 69 1008.3
20260508080008 41 295 0.0 2.6 0.00 0.00 0.00 67 1008.2
20260508074513 42 273 0.0 1.7 0.00 0.00 0.00 67 1007.8
20260508073006 42 273 0.0 0.9 0.00 0.00 0.00 68 1007.6
20260508071505 42 273 0.0 0.9 0.00 0.00 0.00 68 1007.5
20260508070002 43 273 0.0 0.9 0.00 0.00 0.00 66 1007.4
20260508064504 43 291 0.0 1.7 0.00 0.00 0.00 67 1007.6
20260508063059 42 295 0.0 0.0 0.00 0.00 0.00 67 1007.5
20260508061606 43 295 0.0 0.0 0.00 0.00 0.00 65 1007.5
20260508060055 43 295 0.0 0.9 0.00 0.00 0.00 66 1007.6
20260508054625 43 295 0.0 0.9 0.00 0.01 0.00 67 1007.8
20260508053051 43 295 0.0 0.0 0.00 0.01 0.00 67 1007.8
20260508051550 44 295 0.0 0.9 0.00 0.01 0.00 67 1008.0
20260508050047 45 295 0.0 0.0 0.00 0.01 0.00 63 1008.1
20260508044554 46 295 0.0 0.9 0.00 0.01 0.00 60 1008.2
20260508043042 46 287 0.0 0.9 0.00 0.01 0.00 60 1008.2
20260508041548 46 287 0.0 0.9 0.00 0.01 0.00 60 1008.3
20260508040034 47 285 0.0 1.7 0.00 0.01 0.00 58 1008.3
20260508034536 47 284 0.0 1.7 0.00 0.04 0.01 56 1008.2
20260508033037 48 302 0.9 2.6 0.00 0.04 0.01 55 1008.1
20260508031530 48 293 0.0 2.6 0.00 0.04 0.01 54 1008.1
20260508030039 49 305 0.9 3.5 0.00 0.04 0.01 54 1008.0
20260508024531 48 306 0.0 0.9 0.00 0.05 0.01 55 1008.1